KJ4AJP Weather Reports


Display with metric or nautical units.
time (UTC)temp
F
wind
direction
speed
MPH
gust
MPH
rain 1hr
in
rain 24hr
in
rain mn
in
humidity
%
barometer
mb
20260903231247 93 51 0.0 0.0 0.00 0.00 0.00 59 1013.2
20260903230743 92 51 0.0 0.0 0.00 0.00 0.00 58 1013.4
20260903230242 92 51 0.0 0.0 0.00 0.00 0.00 56 1013.3
20260903225739 93 51 0.0 0.0 0.00 0.00 0.00 60 1013.3
20260903225235 92 51 0.0 0.0 0.00 0.00 0.00 56 1013.2
20260903224731 92 55 0.0 0.0 0.00 0.00 0.00 60 1013.1
20260903224227 92 55 0.0 0.0 0.00 0.00 0.00 56 1013.1
20260903223722 93 55 0.0 0.0 0.00 0.00 0.00 56 1013.1
20260903223221 93 56 0.0 0.0 0.00 0.00 0.00 57 1013.2
20260903222715 93 57 0.0 1.0 0.00 0.00 0.00 56 1013.3
20260903222215 93 52 0.0 0.0 0.00 0.00 0.00 56 1013.4
20260903221715 93 61 0.0 0.0 0.00 0.00 0.00 58 1013.3
20260903221214 93 61 0.0 0.0 0.00 0.00 0.00 54 1013.2
20260903220712 93 61 0.0 0.0 0.00 0.00 0.00 59 1013.3
20260903220207 93 61 0.0 0.0 0.00 0.00 0.00 59 1013.3
20260903215706 93 63 0.0 0.0 0.00 0.00 0.00 55 1013.0
20260903215201 93 64 0.0 0.0 0.00 0.00 0.00 54 1013.2
20260903214659 94 57 0.0 0.0 0.00 0.00 0.00 51 1013.2
20260903214155 94 56 0.0 1.0 0.00 0.00 0.00 54 1013.2
20260903213650 95 67 0.0 1.0 0.00 0.00 0.00 56 1013.3
20260903213146 95 63 0.0 0.0 0.00 0.00 0.00 53 1013.4
20260903212642 96 47 0.0 0.0 0.00 0.00 0.00 52 1013.4
20260903212137 96 52 0.0 0.0 0.00 0.00 0.00 55 1013.3
20260903211632 95 49 0.0 0.0 0.00 0.00 0.00 52 1013.4
20260903211129 96 62 0.0 1.0 0.00 0.00 0.00 50 1013.3
20260903210624 97 73 1.0 1.0 0.00 0.00 0.00 49 1013.5
20260903210120 99 58 0.0 0.0 0.00 0.00 0.00 45 1013.6
20260903205619 100 55 0.0 0.0 0.00 0.00 0.00 44 1013.7
20260903205118 99 56 0.0 0.0 0.00 0.00 0.00 46 1013.6
20260903204614 98 89 2.0 2.0 0.00 0.00 0.00 47 1013.6
20260903204110 96 48 0.0 1.0 0.00 0.00 0.00 49 1013.7
20260903203606 95 46 0.0 1.0 0.00 0.00 0.00 49 1013.6
20260903203106 95 54 0.0 0.0 0.00 0.00 0.00 49 1013.7
20260903202601 95 47 0.0 1.0 0.00 0.00 0.00 50 1014.0
20260903202056 96 54 0.0 1.0 0.00 0.00 0.00 50 1013.9
20260903201551 96 53 0.0 0.0 0.00 0.00 0.00 48 1013.9
20260903201050 97 51 0.0 1.0 0.00 0.00 0.00 48 1013.9
20260903200545 98 46 1.0 1.0 0.00 0.00 0.00 48 1014.0
20260903200040 98 58 0.0 0.0 0.00 0.00 0.00 46 1014.0
20260903195536 99 55 0.0 0.0 0.00 0.00 0.00 44 1014.1
20260903195031 100 66 0.0 0.0 0.00 0.00 0.00 42 1014.3
20260903194521 100 56 2.0 3.0 0.00 0.00 0.00 43 1014.2
20260903194017 99 107 2.0 2.0 0.00 0.00 0.00 45 1014.3
20260903193513 100 75 0.0 1.0 0.00 0.00 0.00 43 1014.3
20260903193008 102 31 1.0 2.0 0.00 0.00 0.00 41 1014.4
20260903192505 102 139 3.0 6.0 0.00 0.00 0.00 41 1014.4
20260903192004 101 56 2.0 3.0 0.00 0.00 0.00 41 1014.7
20260903191455 101 56 0.0 1.0 0.00 0.00 0.00 42 1014.5
20260903190954 101 65 2.0 2.0 0.00 0.00 0.00 45 1014.7
20260903190449 101 52 1.0 1.0 0.00 0.00 0.00 41 1014.7
20260903185948 100 210 2.0 2.0 0.00 0.00 0.00 44 1014.7
20260903185444 99 63 1.0 2.0 0.00 0.00 0.00 47 1014.9
20260903184939 98 129 2.0 3.0 0.00 0.00 0.00 44 1015.0
20260903184436 96 31 0.0 1.0 0.00 0.00 0.00 48 1015.2
20260903183936 96 60 0.0 0.0 0.00 0.00 0.00 47 1015.1
20260903183430 96 63 0.0 1.0 0.00 0.00 0.00 48 1015.1
20260903182929 95 57 0.0 0.0 0.00 0.00 0.00 51 1015.2
20260903182428 96 85 1.0 1.0 0.00 0.00 0.00 49 1015.2
20260903181924 96 60 1.0 1.0 0.00 0.00 0.00 46 1015.3
20260903181419 97 136 1.0 1.0 0.00 0.00 0.00 46 1015.2
20260903180912 98 170 2.0 2.0 0.00 0.00 0.00 45 1015.3
20260903180407 99 44 1.0 1.0 0.00 0.00 0.00 45 1015.3
20260903175907 99 36 1.0 1.0 0.00 0.00 0.00 43 1015.6
20260903175407 99 32 1.0 1.0 0.00 0.00 0.00 46 1015.5
20260903174901 99 64 0.0 1.0 0.00 0.00 0.00 45 1015.4
20260903174356 98 95 1.0 1.0 0.00 0.00 0.00 45 1015.5
20260903173850 99 335 2.0 2.0 0.00 0.00 0.00 43 1015.7
20260903173345 99 52 0.0 0.0 0.00 0.00 0.00 44 1015.7
20260903172842 99 65 0.0 1.0 0.00 0.00 0.00 43 1015.7
20260903172336 101 116 2.0 3.0 0.00 0.00 0.00 40 1015.7
20260903171832 100 64 1.0 1.0 0.00 0.00 0.00 41 1015.7
20260903171327 98 31 1.0 1.0 0.00 0.00 0.00 44 1015.7
20260903170826 96 62 0.0 0.0 0.00 0.00 0.00 47 1015.8
20260903170321 96 61 1.0 1.0 0.00 0.00 0.00 48 1015.9
20260903165819 97 48 0.0 0.0 0.00 0.00 0.00 47 1015.7
20260903165314 97 76 1.0 1.0 0.00 0.00 0.00 44 1016.0
20260903164814 97 352 1.0 2.0 0.00 0.00 0.00 45 1016.1
20260903164310 98 210 3.0 3.0 0.00 0.00 0.00 44 1015.9
20260903163808 97 54 1.0 1.0 0.00 0.00 0.00 46 1016.1
20260903163306 97 69 1.0 1.0 0.00 0.00 0.00 48 1016.1
20260903162801 97 187 3.0 4.0 0.00 0.00 0.00 46 1016.1
20260903162257 98 306 4.0 4.0 0.00 0.00 0.00 45 1016.4
20260903161753 98 67 1.0 2.0 0.00 0.00 0.00 48 1016.4
20260903161248 98 70 1.0 1.0 0.00 0.00 0.00 52 1016.6
20260903160744 98 354 3.0 4.0 0.00 0.00 0.00 46 1016.5
20260903160243 98 61 0.0 0.0 0.00 0.00 0.00 47 1016.5
20260903155741 98 56 0.0 1.0 0.00 0.00 0.00 45 1016.6
20260903155236 97 76 0.0 1.0 0.00 0.00 0.00 48 1016.5
20260903154732 96 17 2.0 2.0 0.00 0.00 0.00 49 1016.3
20260903154228 96 74 1.0 1.0 0.00 0.00 0.00 51 1016.4
20260903153723 95 244 2.0 2.0 0.00 0.00 0.00 52 1016.5
20260903153219 96 306 3.0 3.0 0.00 0.00 0.00 50 1016.6
20260903152715 97 331 1.0 2.0 0.00 0.00 0.00 51 1016.6
20260903152211 96 67 0.0 1.0 0.00 0.00 0.00 51 1016.6
20260903151711 95 68 0.0 0.0 0.00 0.00 0.00 54 1016.6
20260903151206 95 17 1.0 1.0 0.00 0.00 0.00 54 1016.7
20260903150701 95 86 1.0 2.0 0.00 0.00 0.00 55 1016.5
20260903150156 95 46 0.0 0.0 0.00 0.00 0.00 55 1016.6
20260903145655 94 59 0.0 0.0 0.00 0.00 0.00 60 1016.6
20260903145150 94 32 1.0 1.0 0.00 0.00 0.00 59 1016.7
20260903144649 93 62 0.0 0.0 0.00 0.00 0.00 57 1016.6
20260903144145 93 65 0.0 0.0 0.00 0.00 0.00 58 1016.5
20260903143641 94 64 0.0 1.0 0.00 0.00 0.00 56 1016.5
20260903143137 94 80 1.0 1.0 0.00 0.00 0.00 55 1016.6
20260903142632 93 64 0.0 0.0 0.00 0.00 0.00 57 1016.5
20260903142129 91 64 0.0 0.0 0.00 0.00 0.00 61 1016.6
20260903141624 90 64 0.0 0.0 0.00 0.00 0.00 63 1016.5
20260903141119 89 39 1.0 1.0 0.00 0.00 0.00 62 1016.8
20260903140615 89 66 0.0 0.0 0.00 0.00 0.00 63 1016.6
20260903140110 88 55 1.0 1.0 0.00 0.00 0.00 66 1016.7
20260903135606 87 70 1.0 1.0 0.00 0.00 0.00 67 1016.9
20260903135101 86 31 1.0 1.0 0.00 0.00 0.00 69 1016.7
20260903134600 85 47 1.0 1.0 0.00 0.00 0.00 70 1016.8
20260903134056 85 357 2.0 2.0 0.00 0.00 0.00 71 1016.9
20260903133553 85 266 2.0 2.0 0.00 0.00 0.00 72 1017.0
20260903133049 85 37 0.0 0.0 0.00 0.00 0.00 73 1017.1
20260903132544 84 63 0.0 0.0 0.00 0.00 0.00 74 1016.9
20260903132039 84 68 0.0 0.0 0.00 0.00 0.00 74 1017.1
20260903131538 84 41 0.0 0.0 0.00 0.00 0.00 75 1016.8
20260903131037 84 54 0.0 0.0 0.00 0.00 0.00 75 1017.0
20260903130533 84 48 0.0 0.0 0.00 0.00 0.00 76 1016.9
20260903130033 82 48 0.0 0.0 0.00 0.00 0.00 78 1016.9
20260903125531 82 48 0.0 0.0 0.00 0.00 0.00 78 1016.8
20260903125026 81 48 0.0 0.0 0.00 0.00 0.00 82 1016.8
20260903124521 79 48 0.0 0.0 0.00 0.00 0.00 83 1016.8
20260903124021 78 48 0.0 0.0 0.00 0.00 0.00 88 1016.8
20260903123515 77 48 0.0 0.0 0.00 0.00 0.00 91 1016.7
20260903123013 75 48 0.0 0.0 0.00 0.00 0.00 94 1016.8
20260903122508 75 48 0.0 0.0 0.00 0.00 0.00 95 1016.8
20260903122007 74 48 0.0 0.0 0.00 0.00 0.00 95 1016.7
20260903121502 74 48 0.0 0.0 0.00 0.00 0.00 95 1016.7
20260903120958 74 48 0.0 0.0 0.00 0.00 0.00 95 1016.6
20260903120456 74 48 0.0 0.0 0.00 0.00 0.00 95 1016.7
20260903115956 73 48 0.0 0.0 0.00 0.00 0.00 96 1016.6
20260903115455 73 48 0.0 0.0 0.00 0.00 0.00 96 1016.5
20260903114956 73 48 0.0 0.0 0.00 0.00 0.00 96 1016.4
20260903114451 73 48 0.0 0.0 0.00 0.00 0.00 96 1016.3
20260903113947 73 48 0.0 0.0 0.00 0.00 0.00 96 1016.4
20260903113443 73 48 0.0 0.0 0.00 0.00 0.00 96 1016.3
20260903112938 73 48 0.0 0.0 0.00 0.00 0.00 96 1016.1
20260903112434 73 48 0.0 0.0 0.00 0.00 0.00 96 1016.1
20260903111933 73 48 0.0 0.0 0.00 0.00 0.00 95 1016.4
20260903111433 73 48 0.0 0.0 0.00 0.00 0.00 95 1016.3
20260903110929 73 48 0.0 0.0 0.00 0.00 0.00 95 1016.1
20260903110425 73 48 0.0 0.0 0.00 0.00 0.00 95 1016.3
20260903105919 73 48 0.0 0.0 0.00 0.00 0.00 96 1016.1
20260903105415 73 48 0.0 0.0 0.00 0.00 0.00 95 1016.4
20260903104914 73 48 0.0 0.0 0.00 0.00 0.00 95 1016.3
20260903104408 73 48 0.0 0.0 0.00 0.00 0.00 95 1015.9
20260903103906 73 48 0.0 0.0 0.00 0.00 0.00 95 1016.0
20260903103401 73 48 0.0 0.0 0.00 0.00 0.00 95 1015.9
20260903102856 73 48 0.0 0.0 0.00 0.00 0.00 95 1015.9
20260903102351 73 48 0.0 0.0 0.00 0.00 0.00 95 1016.0
20260903101850 74 48 0.0 0.0 0.00 0.00 0.00 95 1016.0
20260903101346 74 48 0.0 0.0 0.00 0.00 0.00 94 1015.8
20260903100841 74 48 0.0 0.0 0.00 0.00 0.00 94 1015.8
20260903100342 74 48 0.0 0.0 0.00 0.00 0.00 94 1015.7
20260903095839 74 48 0.0 0.0 0.00 0.00 0.00 94 1016.1
20260903095338 74 48 0.0 0.0 0.00 0.00 0.00 93 1015.9
20260903094834 74 48 0.0 0.0 0.00 0.00 0.00 92 1015.9
20260903094328 75 48 0.0 0.0 0.00 0.00 0.00 92 1015.8
20260903093824 75 48 0.0 0.0 0.00 0.00 0.00 92 1015.8
20260903093319 75 48 0.0 0.0 0.00 0.00 0.00 92 1015.7
20260903092814 75 48 0.0 0.0 0.00 0.00 0.00 92 1015.7
20260903092309 75 48 0.0 0.0 0.00 0.00 0.00 93 1015.4
20260903091807 75 48 0.0 0.0 0.00 0.00 0.00 93 1015.8
20260903091301 75 48 0.0 0.0 0.00 0.00 0.00 93 1015.7
20260903090757 75 48 0.0 0.0 0.00 0.00 0.00 93 1015.7
20260903090256 75 48 0.0 0.0 0.00 0.00 0.00 92 1015.6
20260903085755 75 48 0.0 0.0 0.00 0.00 0.00 92 1015.7
20260903085250 75 48 0.0 0.0 0.00 0.00 0.00 92 1015.7
20260903084748 75 48 0.0 0.0 0.00 0.00 0.00 92 1015.6
20260903084243 75 48 0.0 0.0 0.00 0.00 0.00 91 1015.7
20260903083738 75 48 0.0 0.0 0.00 0.00 0.00 91 1015.5
20260903083233 76 48 0.0 0.0 0.00 0.00 0.00 91 1015.6
20260903082732 76 48 0.0 0.0 0.00 0.00 0.00 90 1015.5
20260903082228 76 48 0.0 0.0 0.00 0.00 0.00 90 1015.6
20260903081727 76 48 0.0 0.0 0.00 0.00 0.00 90 1015.7
20260903081223 76 48 0.0 0.0 0.00 0.00 0.00 90 1015.5
20260903080719 76 48 0.0 0.0 0.00 0.00 0.00 90 1015.3
20260903080217 76 48 0.0 0.0 0.00 0.00 0.00 90 1015.4
20260903075716 76 48 0.0 0.0 0.00 0.00 0.00 90 1015.3
20260903075211 76 48 0.0 0.0 0.00 0.00 0.00 89 1015.3
20260903074710 76 48 0.0 0.0 0.00 0.00 0.00 90 1015.1
20260903074206 76 48 0.0 0.0 0.00 0.00 0.00 89 1015.3
20260903073701 76 48 0.0 0.0 0.00 0.00 0.00 89 1015.4
20260903073156 76 48 0.0 0.0 0.00 0.00 0.00 89 1015.4
20260903072652 77 48 0.0 0.0 0.00 0.00 0.00 89 1015.2
20260903072148 77 48 0.0 0.0 0.00 0.00 0.00 89 1015.5
20260903071644 77 48 0.0 0.0 0.00 0.00 0.00 88 1015.4
20260903071140 77 48 0.0 0.0 0.00 0.00 0.00 88 1015.4
20260903070639 77 48 0.0 0.0 0.00 0.00 0.00 88 1015.5
20260903070135 77 48 0.0 0.0 0.00 0.00 0.00 87 1015.5
20260903065635 77 48 0.0 0.0 0.00 0.00 0.00 87 1015.5
20260903065130 77 48 0.0 0.0 0.00 0.00 0.00 87 1015.8
20260903064629 77 48 0.0 0.0 0.00 0.00 0.00 87 1015.6
20260903064125 77 48 0.0 0.0 0.00 0.00 0.00 87 1015.5
20260903063620 77 48 0.0 0.0 0.00 0.00 0.00 87 1015.5
20260903063115 78 48 0.0 0.0 0.00 0.00 0.00 86 1015.5
20260903062611 77 48 0.0 0.0 0.00 0.00 0.00 86 1015.6
20260903062106 78 48 0.0 0.0 0.00 0.00 0.00 86 1015.6
20260903061601 78 48 0.0 0.0 0.00 0.00 0.00 86 1015.5
20260903061101 78 48 0.0 0.0 0.00 0.00 0.00 86 1015.6
20260903060600 78 47 0.0 0.0 0.00 0.00 0.00 85 1015.5
20260903060055 78 47 0.0 0.0 0.00 0.00 0.00 85 1015.5
20260903055553 78 47 0.0 0.0 0.00 0.00 0.00 84 1015.5
20260903055052 79 45 0.0 1.0 0.00 0.00 0.00 83 1015.7
20260903054547 79 51 0.0 0.0 0.00 0.00 0.00 82 1015.6
20260903054043 79 50 0.0 0.0 0.00 0.00 0.00 82 1015.6
20260903053538 80 51 0.0 0.0 0.00 0.00 0.00 81 1015.7
20260903053034 80 51 0.0 0.0 0.00 0.00 0.00 81 1015.6
20260903052530 80 51 0.0 0.0 0.00 0.00 0.00 81 1015.6
20260903052026 80 53 0.0 0.0 0.00 0.00 0.00 81 1015.7
20260903051520 80 54 0.0 0.0 0.00 0.00 0.00 80 1015.6
20260903051016 80 54 0.0 0.0 0.00 0.00 0.00 80 1015.7
20260903050515 80 55 0.0 0.0 0.00 0.00 0.00 80 1015.7
20260903050010 80 54 0.0 0.0 0.00 0.00 0.00 80 1015.7
20260903045510 80 57 0.0 0.0 0.00 0.00 0.00 79 1015.7
20260903045007 80 56 0.0 0.0 0.00 0.00 0.00 79 1015.5
20260903044502 81 56 0.0 0.0 0.00 0.00 0.00 79 1015.5
20260903043958 81 56 0.0 0.0 0.00 0.00 0.00 78 1015.7
20260903043453 81 57 0.0 0.0 0.00 0.00 0.00 78 1015.7
20260903042951 81 57 0.0 0.0 0.00 0.00 0.00 78 1015.3
20260903042447 81 60 0.0 0.0 0.00 0.00 0.00 77 1015.5
20260903041943 81 52 0.0 0.0 0.00 0.00 0.00 77 1015.5
20260903041439 81 57 0.0 0.0 0.00 0.00 0.00 78 1015.4
20260903040935 81 64 0.0 0.0 0.00 0.00 0.00 77 1015.5
20260903040433 81 65 0.0 0.0 0.00 0.00 0.00 77 1015.6
20260903035930 81 64 0.0 0.0 0.00 0.00 0.00 77 1015.6
20260903035426 81 61 0.0 0.0 0.00 0.00 0.00 77 1015.6
20260903034925 81 60 0.0 0.0 0.00 0.00 0.00 77 1015.5
20260903034421 82 60 0.0 0.0 0.00 0.00 0.00 77 1015.6
20260903033916 82 62 0.0 0.0 0.00 0.00 0.00 76 1015.6
20260903033411 82 52 0.0 0.0 0.00 0.00 0.00 76 1015.7
20260903032906 82 61 0.0 0.0 0.00 0.00 0.00 77 1015.6
20260903032402 82 61 0.0 0.0 0.00 0.00 0.00 77 1015.6
20260903031902 82 63 0.0 0.0 0.00 0.00 0.00 76 1015.6
20260903031401 82 63 0.0 0.0 0.00 0.00 0.00 76 1015.7
20260903030856 82 63 0.0 0.0 0.00 0.00 0.00 76 1015.4
20260903030353 82 62 0.0 0.0 0.00 0.00 0.00 75 1015.6
20260903025848 83 63 0.0 0.0 0.00 0.00 0.00 74 1015.7
20260903025343 83 63 0.0 0.0 0.00 0.00 0.00 74 1015.6
20260903024838 82 56 0.0 0.0 0.00 0.00 0.00 74 1015.6
20260903024338 82 58 0.0 0.0 0.00 0.00 0.00 75 1015.5
20260903023833 83 64 0.0 0.0 0.00 0.00 0.00 74 1015.5
20260903023329 83 64 0.0 0.0 0.00 0.00 0.00 73 1015.4
20260903022818 83 64 0.0 0.0 0.00 0.00 0.00 73 1015.6
20260903022317 84 64 0.0 0.0 0.00 0.00 0.00 72 1015.6
20260903021810 84 64 0.0 0.0 0.00 0.00 0.00 72 1015.5
20260903021306 84 65 0.0 0.0 0.00 0.00 0.00 71 1015.5
20260903020806 84 70 0.0 0.0 0.00 0.00 0.00 71 1015.5
20260903020300 85 72 0.0 0.0 0.00 0.00 0.00 70 1015.3
20260903015756 85 66 0.0 0.0 0.00 0.00 0.00 70 1015.4
20260903015251 85 60 0.0 0.0 0.00 0.00 0.00 70 1015.3
20260903014747 85 74 1.0 1.0 0.00 0.00 0.00 69 1015.3
20260903014241 85 61 0.0 0.0 0.00 0.00 0.00 70 1015.2
20260903013736 85 60 0.0 0.0 0.00 0.00 0.00 70 1015.1
20260903013234 85 70 0.0 0.0 0.00 0.00 0.00 70 1015.0
20260903012733 85 65 0.0 0.0 0.00 0.00 0.00 69 1015.2
20260903012228 85 66 0.0 1.0 0.00 0.00 0.00 69 1015.2
20260903011728 85 61 0.0 0.0 0.00 0.00 0.00 69 1014.8
20260903011221 85 61 0.0 0.0 0.00 0.00 0.00 69 1014.9
20260903010717 85 59 0.0 0.0 0.00 0.00 0.00 68 1014.8
20260903010217 85 65 0.0 0.0 0.00 0.00 0.00 68 1014.8
20260903005716 85 65 0.0 0.0 0.00 0.00 0.00 68 1014.7
20260903005211 86 64 0.0 0.0 0.00 0.00 0.00 68 1014.8
20260903004707 86 58 0.0 0.0 0.00 0.00 0.00 67 1014.9
20260903004201 86 58 0.0 0.0 0.00 0.00 0.00 66 1014.7
20260903003657 86 58 0.0 0.0 0.00 0.00 0.00 67 1014.9
20260903003152 86 58 0.0 0.0 0.00 0.00 0.00 65 1014.8
20260903002642 87 58 0.0 0.0 0.00 0.00 0.00 65 1014.8
20260903002137 87 58 0.0 0.0 0.00 0.00 0.00 64 1014.8
20260903001631 87 58 0.0 0.0 0.00 0.00 0.00 63 1014.8
20260903001130 88 58 0.0 0.0 0.00 0.00 0.00 62 1015.0
20260903000626 89 58 0.0 0.0 0.00 0.00 0.00 60 1015.1
20260903000120 89 58 0.0 0.0 0.00 0.00 0.00 59 1015.0
20260902235619 90 57 0.0 0.0 0.00 0.00 0.00 58 1015.1
20260902235114 91 65 0.0 0.0 0.00 0.00 0.00 56 1014.9
20260902234608 91 73 0.0 1.0 0.00 0.00 0.00 55 1015.1
20260902234107 92 65 0.0 0.0 0.00 0.00 0.00 53 1015.0
20260902233603 92 76 1.0 2.0 0.00 0.00 0.00 52 1015.0
20260902233102 93 58 1.0 1.0 0.00 0.00 0.00 51 1015.0
20260902232556 94 64 0.0 0.0 0.00 0.00 0.00 53 1014.9
20260902232050 94 61 0.0 0.0 0.00 0.00 0.00 52 1015.0
20260902231544 95 54 1.0 2.0 0.00 0.00 0.00 49 1014.9